Flag for Canada Weather past 2 weeks in Resolute Bay, Nunavut Territory, Canada

Now
27 °F

Partly sunny.


Feels Like: 16 °F
Forecast: 23 / 31 °F
Wind: 12 mph from East

Location: Resolute

Current Time: Sep 19, 2014 at 7:34:24 PM

Latest Report: Sep 19, 2014 at 7:00 PM


Visibility: 15 mi

Pressure: 29.75 "Hg

Humidity: 80%

Dew point: 21 °F

Location of Resolute BayLocation

Historic Weather in Resolute Bay — Graph

°F

Resolute Bay temperature yesterday

Maximum temperature yesterday: 28 °F (at 2:00 PM)
Minimum temperature yesterday: 21 °F (at 7:00 AM)
Average temperature yesterday: 25 °F

Past Weeks' High & Low Weather Summary

 TemperatureHumidityPressure
High43 °F (Sep 5, 12:00 PM)100% (Sep 5, 7:00 AM)30.02 "Hg (Sep 5, 7:00 AM)
Low19 °F (Sep 12, 11:00 PM)70% (Sep 7, 5:00 PM)29.30 "Hg (Sep 12, 2:00 PM)
Average28 °F89%29.76 "Hg
* Reported Sep 4 6:00 PM — Sep 19 6:00 PM, Resolute Bay, Weather by CustomWeather, © 2014

Note: Actual official high and low records may vary slightly from our data, if they occured in-between our weather recording intervals... More about our weather records

Advertising

Resolute Bay weather history for previous 24 hours

 ConditionsComfort  
Time TempWeatherWind HumidityBarometerVisibility
6:00 PM
Sep 19
28 °FScattered clouds.12 mph80%29.73 "Hg15 mi
5:00 PM28 °FPartly sunny.13 mph80%29.73 "Hg15 mi
4:00 PM28 °FMostly cloudy.14 mph80%29.73 "Hg15 mi
3:00 PM28 °FPartly sunny.16 mph86%29.71 "Hg15 mi
2:00 PM30 °FPartly sunny.22 mph86%29.70 "Hg15 mi
1:00 PM32 °FMostly cloudy.14 mph87%29.69 "Hg10 mi
12:00 PM32 °FLight snow. Mostly cloudy.15 mph93%29.67 "Hg8 mi
11:00 AM32 °FMostly cloudy.6 mph87%29.67 "Hg10 mi
10:00 AM30 °FLight snow. Mostly cloudy.12 mph93%29.66 "Hg6 mi
9:00 AM30 °FLight snow. Mostly cloudy.14 mph93%29.66 "Hg8 mi
8:00 AM30 °FLight snow. Mostly cloudy.14 mph93%29.66 "Hg10 mi
7:00 AM30 °FLight snow. Mostly cloudy.13 mph93%29.67 "Hg8 mi
6:00 AM30 °FPassing clouds.16 mph86%29.66 "Hg15 mi
5:00 AM30 °FLight snow. Mostly cloudy.17 mph93%29.66 "Hg15 mi
4:00 AM28 °FLight snow. Mostly cloudy.20 mph93%29.67 "Hg10 mi
3:00 AM28 °FMostly cloudy.22 mph93%29.67 "Hg15 mi
2:00 AM28 °FMostly cloudy.24 mph93%29.67 "Hg15 mi
1:00 AM28 °FLight snow. Mostly cloudy.24 mph86%29.69 "Hg15 mi
12:00 AM27 °FLight snow. Overcast.23 mph93%29.70 "Hg15 mi
11:00 PM
Sep 18
27 °FLight snow. Overcast.23 mph93%29.72 "Hg15 mi
10:00 PM27 °FLight snow. Mostly cloudy.23 mph93%29.74 "Hg15 mi
9:00 PM27 °FOvercast.23 mph86%29.75 "Hg15 mi
8:00 PM25 °FPartly cloudy.20 mph93%29.77 "Hg15 mi
7:00 PM27 °FPartly sunny.20 mph93%29.78 "Hg15 mi
Weather by CustomWeather, © 2014

See weather overviewHow to use our weather pages